• In Österreich
  • Länderverzeichnis
  • Für 7 Tage
  • Wassertemperatur
  • Satellitenkarten
  • Wetterkarte
  • News
  • Widgets
  • user-avatar
    Anmelden

    Stündliche Wetter Uzunköprü

    Heute, 18 November, Samstag

    Zeit Temperatur Niederschläge Wind Luftdruck Luftfeuchtigkeit
    00:00 +13°C° 0,5 mm 3 m/S 757 mmHg 90%
    01:00 +13°C° 0,5 mm 3 m/S 757 mmHg 91%
    02:00 +13°C° 0 mm 3 m/S 757 mmHg 91%
    03:00 +13°C° 0,4 mm 3 m/S 757 mmHg 91%
    04:00 +13°C° 0,4 mm 2 m/S 757 mmHg 92%
    05:00 +13°C° 0,4 mm 2 m/S 757 mmHg 93%
    06:00 +13°C° 0,2 mm 2 m/S 757 mmHg 92%
    07:00 +13°C° 0,2 mm 2 m/S 756 mmHg 92%
    08:00 +13°C° 0 mm 2 m/S 756 mmHg 90%
    09:00 +14°C° 0 mm 2 m/S 756 mmHg 86%
    10:00 +15°C° 0 mm 2 m/S 756 mmHg 81%
    11:00 +16°C° 0 mm 2 m/S 756 mmHg 77%
    12:00 +16°C° 0 mm 2 m/S 756 mmHg 74%
    13:00 +16°C° 0 mm 2 m/S 756 mmHg 72%
    14:00 +18°C° 0 mm 1 m/S 755 mmHg 69%
    15:00 +16°C° 0 mm 1 m/S 755 mmHg 72%
    16:00 +16°C° 0 mm 2 m/S 755 mmHg 74%
    17:00 +15°C° 0 mm 2 m/S 755 mmHg 77%
    18:00 +15°C° 0,3 mm 2 m/S 755 mmHg 79%
    19:00 +15°C° 0,3 mm 2 m/S 755 mmHg 81%
    20:00 +14°C° 0,3 mm 2 m/S 755 mmHg 83%
    21:00 +14°C° 0,5 mm 2 m/S 755 mmHg 84%
    22:00 +14°C° 0,5 mm 2 m/S 755 mmHg 86%
    23:00 +14°C° 0,5 mm 2 m/S 755 mmHg 87%

    Morgen, 19 November, Sonntag

    Zeit Temperatur Niederschläge Wind Luftdruck Luftfeuchtigkeit
    00:00 +13°C° 0,6 mm 2 m/S 755 mmHg 88%
    01:00 +13°C° 0,6 mm 2 m/S 755 mmHg 89%
    02:00 +13°C° 0,6 mm 2 m/S 755 mmHg 90%
    03:00 +13°C° 0,3 mm 2 m/S 754 mmHg 90%
    04:00 +13°C° 0,3 mm 2 m/S 754 mmHg 90%
    05:00 +12°C° 0,3 mm 2 m/S 754 mmHg 89%
    06:00 +12°C° 0,3 mm 2 m/S 754 mmHg 89%
    07:00 +12°C° 0,3 mm 2 m/S 754 mmHg 88%
    08:00 +12°C° 0,3 mm 2 m/S 754 mmHg 87%
    09:00 +13°C° 0,3 mm 2 m/S 754 mmHg 86%
    10:00 +13°C° 0,3 mm 2 m/S 755 mmHg 84%
    11:00 +12°C° 0,3 mm 3 m/S 755 mmHg 82%
    12:00 +12°C° 0,3 mm 3 m/S 754 mmHg 82%
    13:00 +12°C° 0,3 mm 3 m/S 754 mmHg 82%
    14:00 +12°C° 0,3 mm 3 m/S 753 mmHg 81%
    15:00 +12°C° 0,8 mm 3 m/S 753 mmHg 83%
    16:00 +11°C° 0,8 mm 3 m/S 753 mmHg 85%
    17:00 +11°C° 0,8 mm 3 m/S 753 mmHg 87%
    18:00 +11°C° 2,4 mm 3 m/S 753 mmHg 88%
    19:00 +10°C° 2,4 mm 4 m/S 753 mmHg 90%
    20:00 +10°C° 2,4 mm 4 m/S 752 mmHg 91%
    21:00 +10°C° 4,4 mm 4 m/S 752 mmHg 91%
    22:00 +8°C° 4,4 mm 4 m/S 752 mmHg 91%
    23:00 +8°C° 4,4 mm 5 m/S 752 mmHg 90%

    übermorgen, 20 November, Montag

    Zeit Temperatur Niederschläge Wind Luftdruck Luftfeuchtigkeit
    00:00 +8°C° 0,5 mm 4 m/S 752 mmHg 89%
    01:00 +9°C° 0,5 mm 3 m/S 753 mmHg 88%
    02:00 +9°C° 0,5 mm 2 m/S 753 mmHg 87%
    03:00 +10°C° 0 mm 1 m/S 753 mmHg 88%
    04:00 +9°C° 0 mm 1 m/S 753 mmHg 88%
    05:00 +9°C° 0 mm 1 m/S 753 mmHg 88%
    06:00 +9°C° 0,1 mm 1 m/S 753 mmHg 86%
    07:00 +8°C° 0,1 mm 2 m/S 753 mmHg 84%
    08:00 +8°C° 0,1 mm 2 m/S 753 mmHg 83%
    09:00 +8°C° 0,6 mm 3 m/S 754 mmHg 80%
    10:00 +7°C° 0,6 mm 4 m/S 754 mmHg 78%
    11:00 +7°C° 0,6 mm 5 m/S 754 mmHg 76%
    12:00 +7°C° 0,8 mm 6 m/S 754 mmHg 76%
    13:00 +5°C° 0,8 mm 7 m/S 754 mmHg 77%
    14:00 +5°C° 0,8 mm 7 m/S 754 mmHg 78%
    15:00 +5°C° 0,8 mm 7 m/S 754 mmHg 76%
    16:00 +5°C° 0,8 mm 7 m/S 755 mmHg 75%
    17:00 +5°C° 0,8 mm 7 m/S 755 mmHg 74%
    18:00 +5°C° 0,3 mm 6 m/S 756 mmHg 73%
    19:00 +6°C° 0,3 mm 5 m/S 757 mmHg 72%
    20:00 +6°C° 0,3 mm 5 m/S 757 mmHg 71%
    21:00 +5°C° 0 mm 5 m/S 758 mmHg 71%
    22:00 +5°C° 0 mm 5 m/S 759 mmHg 71%
    23:00 +5°C° 0 mm 4 m/S 759 mmHg 71%

    21 November, Dienstag

    Zeit Temperatur Niederschläge Wind Luftdruck Luftfeuchtigkeit
    00:00 +3°C° 0 mm 5 m/S 759 mmHg 71%
    01:00 +3°C° 0 mm 5 m/S 760 mmHg 71%
    02:00 +3°C° 0 mm 5 m/S 760 mmHg 71%
    03:00 +3°C° 0 mm 4 m/S 760 mmHg 71%
    04:00 +3°C° 0 mm 4 m/S 760 mmHg 71%
    05:00 +3°C° 0 mm 4 m/S 760 mmHg 72%
    06:00 +3°C° 0 mm 3 m/S 761 mmHg 72%
    07:00 +3°C° 0 mm 3 m/S 761 mmHg 72%
    08:00 +4°C° 0 mm 2 m/S 761 mmHg 72%
    09:00 +5°C° 0 mm 2 m/S 761 mmHg 65%
    10:00 +7°C° 0 mm 2 m/S 762 mmHg 59%
    11:00 +8°C° 0 mm 2 m/S 762 mmHg 52%
    12:00 +9°C° 0 mm 2 m/S 761 mmHg 49%
    13:00 +9°C° 0 mm 2 m/S 761 mmHg 46%
    14:00 +10°C° 0 mm 2 m/S 760 mmHg 44%
    15:00 +9°C° 0 mm 2 m/S 760 mmHg 48%
    16:00 +8°C° 0 mm 3 m/S 760 mmHg 53%
    17:00 +8°C° 0 mm 3 m/S 760 mmHg 57%
    18:00 +7°C° 0 mm 3 m/S 760 mmHg 61%
    19:00 +7°C° 0 mm 3 m/S 760 mmHg 64%
    20:00 +7°C° 0 mm 3 m/S 760 mmHg 68%
    21:00 +7°C° 0 mm 3 m/S 760 mmHg 69%
    22:00 +7°C° 0 mm 3 m/S 760 mmHg 70%
    23:00 +7°C° 0 mm 3 m/S 760 mmHg 71%

    22 November, Mittwoch

    Zeit Temperatur Niederschläge Wind Luftdruck Luftfeuchtigkeit
    00:00 +7°C° 0 mm 3 m/S 760 mmHg 71%
    01:00 +7°C° 0 mm 3 m/S 759 mmHg 71%
    02:00 +7°C° 0 mm 3 m/S 759 mmHg 71%
    03:00 +7°C° 0 mm 3 m/S 759 mmHg 71%
    04:00 +7°C° 0 mm 2 m/S 759 mmHg 70%
    05:00 +7°C° 0 mm 2 m/S 759 mmHg 70%
    06:00 +7°C° 0 mm 2 m/S 759 mmHg 70%
    07:00 +7°C° 0 mm 2 m/S 759 mmHg 69%
    08:00 +8°C° 0 mm 1 m/S 760 mmHg 69%
    09:00 +9°C° 0 mm 2 m/S 760 mmHg 63%
    10:00 +12°C° 0 mm 2 m/S 760 mmHg 57%
    11:00 +14°C° 0 mm 2 m/S 760 mmHg 51%
    12:00 +13°C° 0 mm 3 m/S 760 mmHg 49%
    13:00 +14°C° 0 mm 3 m/S 760 mmHg 48%
    14:00 +16°C° 0 mm 3 m/S 760 mmHg 46%
    15:00 +15°C° 0 mm 2 m/S 760 mmHg 50%
    16:00 +14°C° 0 mm 2 m/S 761 mmHg 54%
    17:00 +13°C° 0 mm 1 m/S 761 mmHg 59%
    18:00 +13°C° 0 mm 1 m/S 761 mmHg 61%
    19:00 +13°C° 0 mm 1 m/S 762 mmHg 64%
    20:00 +12°C° 0 mm 1 m/S 762 mmHg 66%
    21:00 +12°C° 0 mm 2 m/S 763 mmHg 70%
    22:00 +10°C° 0 mm 2 m/S 763 mmHg 74%
    23:00 +10°C° 0 mm 2 m/S 764 mmHg 77%

    23 November, Donnerstag

    Zeit Temperatur Niederschläge Wind Luftdruck Luftfeuchtigkeit
    00:00 +10°C° 0 mm 2 m/S 764 mmHg 80%
    01:00 +9°C° 0 mm 2 m/S 764 mmHg 83%
    02:00 +9°C° 0 mm 2 m/S 764 mmHg 86%
    03:00 +9°C° 0 mm 2 m/S 764 mmHg 87%
    04:00 +8°C° 0 mm 2 m/S 764 mmHg 87%
    05:00 +9°C° 0 mm 1 m/S 764 mmHg 88%
    06:00 +9°C° 0 mm 1 m/S 765 mmHg 87%
    07:00 +9°C° 0 mm 1 m/S 765 mmHg 87%
    08:00 +9°C° 0 mm 1 m/S 765 mmHg 86%
    09:00 +10°C° 0 mm 1 m/S 765 mmHg 80%
    10:00 +12°C° 0 mm 1 m/S 765 mmHg 74%
    11:00 +13°C° 0 mm 2 m/S 766 mmHg 68%
    12:00 +13°C° 0 mm 1 m/S 765 mmHg 66%
    13:00 +14°C° 0 mm 1 m/S 765 mmHg 64%
    14:00 +14°C° 0 mm 1 m/S 765 mmHg 62%
    15:00 +14°C° 0 mm 1 m/S 765 mmHg 66%
    16:00 +13°C° 0 mm 1 m/S 765 mmHg 69%
    17:00 +12°C° 0 mm 2 m/S 765 mmHg 73%
    18:00 +12°C° 0 mm 2 m/S 765 mmHg 76%
    19:00 +11°C° 0 mm 1 m/S 766 mmHg 79%
    20:00 +11°C° 0 mm 1 m/S 766 mmHg 81%
    21:00 +10°C° 0 mm 1 m/S 766 mmHg 83%
    22:00 +10°C° 0 mm 1 m/S 766 mmHg 84%
    23:00 +10°C° 0 mm 1 m/S 766 mmHg 85%
    Mehr zeigen